QFA2806 YBBN-YSSY

Flight info

Callsign QFA2806
Flight time 1h 12m
Altitude 38000
Route SANEG H91 IGDAM H652 BOREE
Aircraft B738/M-SDE2E3FGHIRWXY/LB1

Departure

Time 2026-04-23 01:12
Airport Brisbane International Airport (YBBN)

Arrival

Time 2026-04-23 02:25
Airport Sydney Kingsford Smith International Airport (YSSY)
Time Latitude Longitude Altitude Speed Heading
2026-04-22 23:36 -27.38676 153.12001 18 ft 0 kts 306°
2026-04-23 00:58 -27.38678 153.12003 17 ft 2 kts 306°
2026-04-23 00:58 -27.38693 153.12027 17 ft 4 kts 307°
2026-04-23 00:58 -27.38710 153.12051 17 ft 4 kts 311°
2026-04-23 00:59 -27.38729 153.12072 18 ft 4 kts 333°
2026-04-23 00:59 -27.38741 153.12080 20 ft 4 kts 66°
2026-04-23 00:59 -27.38742 153.12081 20 ft 1 kts 102°
2026-04-23 00:59 -27.38742 153.12079 20 ft 0 kts 102°
2026-04-23 01:03 -27.38747 153.12106 17 ft 6 kts 104°
2026-04-23 01:04 -27.38763 153.12155 18 ft 7 kts 110°
2026-04-23 01:04 -27.38775 153.12205 18 ft 7 kts 104°
2026-04-23 01:04 -27.38781 153.12302 19 ft 6 kts 63°
2026-04-23 01:05 -27.38749 153.12348 18 ft 8 kts 59°
2026-04-23 01:05 -27.38751 153.12415 17 ft 9 kts 104°
2026-04-23 01:05 -27.38731 153.12479 19 ft 9 kts 38°
2026-04-23 01:05 -27.38676 153.12512 19 ft 10 kts 26°
2026-04-23 01:06 -27.38609 153.12551 18 ft 11 kts 30°
2026-04-23 01:06 -27.38542 153.12591 19 ft 11 kts 26°
2026-04-23 01:06 -27.38475 153.12627 18 ft 10 kts 26°
2026-04-23 01:06 -27.38411 153.12664 18 ft 10 kts 28°
2026-04-23 01:07 -27.38349 153.12700 18 ft 10 kts 26°
2026-04-23 01:07 -27.38280 153.12738 18 ft 13 kts 26°
2026-04-23 01:07 -27.38190 153.12788 18 ft 15 kts 26°
2026-04-23 01:07 -27.38103 153.12840 17 ft 14 kts 28°
2026-04-23 01:08 -27.38019 153.12889 17 ft 13 kts 27°
2026-04-23 01:08 -27.37939 153.12935 19 ft 13 kts 27°
2026-04-23 01:08 -27.37861 153.12980 17 ft 13 kts 27°
2026-04-23 01:08 -27.37784 153.13024 19 ft 13 kts 27°
2026-04-23 01:09 -27.37683 153.13079 19 ft 18 kts 26°
2026-04-23 01:09 -27.37577 153.13143 17 ft 17 kts 28°
2026-04-23 01:09 -27.37476 153.13200 18 ft 16 kts 25°
2026-04-23 01:09 -27.37383 153.13254 17 ft 12 kts 28°
2026-04-23 01:10 -27.37325 153.13288 17 ft 4 kts 38°
2026-04-23 01:10 -27.37315 153.13317 17 ft 5 kts 90°
2026-04-23 01:10 -27.37329 153.13359 19 ft 6 kts 116°
2026-04-23 01:10 -27.37355 153.13397 19 ft 6 kts 138°
2026-04-23 01:11 -27.37393 153.13420 22 ft 6 kts 158°
2026-04-23 01:11 -27.37438 153.13432 21 ft 10 kts 174°
2026-04-23 01:11 -27.37641 153.13332 22 ft 67 kts 207°
2026-04-23 01:11 -27.38224 153.12999 24 ft 118 kts 206°
2026-04-23 01:12 -27.39071 153.12511 94 ft 148 kts 205°
2026-04-23 01:12 -27.39967 153.12001 634 ft 148 kts 203°
2026-04-23 01:12 -27.40983 153.11468 850 ft 172 kts 201°
2026-04-23 01:12 -27.42097 153.10953 1386 ft 171 kts 191°
2026-04-23 01:13 -27.43254 153.11122 1973 ft 173 kts 155°
2026-04-23 01:13 -27.44354 153.11828 2445 ft 191 kts 150°
2026-04-23 01:13 -27.45529 153.12575 2985 ft 195 kts 153°
2026-04-23 01:13 -27.46763 153.13257 3448 ft 206 kts 155°
2026-04-23 01:14 -27.48080 153.14003 3982 ft 217 kts 152°
2026-04-23 01:14 -27.49456 153.14758 4652 ft 219 kts 164°
2026-04-23 01:14 -27.51016 153.14795 5151 ft 241 kts 191°
2026-04-23 01:14 -27.52673 153.14112 5575 ft 255 kts 196°
2026-04-23 01:15 -27.54381 153.13580 6056 ft 262 kts 189°
2026-04-23 01:15 -27.56174 153.13134 6014 ft 260 kts 189°
2026-04-23 01:15 -27.57913 153.12573 5972 ft 259 kts 196°
2026-04-23 01:15 -27.59588 153.11915 6035 ft 262 kts 195°
2026-04-23 01:16 -27.61358 153.11241 6420 ft 270 kts 195°
2026-04-23 01:16 -27.63113 153.10631 7428 ft 260 kts 193°
2026-04-23 01:16 -27.64879 153.10051 8051 ft 269 kts 194°
2026-04-23 01:16 -27.66706 153.09443 8639 ft 278 kts 193°
2026-04-23 01:17 -27.68572 153.08815 9421 ft 280 kts 193°
2026-04-23 01:17 -27.70458 153.08188 10177 ft 286 kts 193°
2026-04-23 01:17 -27.72430 153.07529 10476 ft 307 kts 193°
2026-04-23 01:17 -27.74552 153.06823 10734 ft 327 kts 194°
2026-04-23 01:18 -27.76754 153.06086 11374 ft 332 kts 193°
2026-04-23 01:18 -27.78948 153.05350 12095 ft 336 kts 194°
2026-04-23 01:18 -27.81184 153.04601 12835 ft 339 kts 193°
2026-04-23 01:18 -27.83437 153.03772 13585 ft 344 kts 197°
2026-04-23 01:19 -27.85695 153.02819 14290 ft 349 kts 198°
2026-04-23 01:19 -27.87970 153.01817 15003 ft 352 kts 199°
2026-04-23 01:19 -27.90261 153.00797 15742 ft 355 kts 198°
2026-04-23 01:19 -27.92566 152.99774 16488 ft 358 kts 198°
2026-04-23 01:20 -27.94907 152.98741 17180 ft 362 kts 198°
2026-04-23 01:20 -27.97264 152.97705 17887 ft 366 kts 198°
2026-04-23 01:20 -27.99625 152.96672 18581 ft 370 kts 198°
2026-04-23 01:20 -28.02035 152.95620 19190 ft 373 kts 198°
2026-04-23 01:21 -28.04455 152.94564 19868 ft 374 kts 199°
2026-04-23 01:21 -28.06890 152.93502 20518 ft 375 kts 199°
2026-04-23 01:21 -28.09328 152.92439 21201 ft 376 kts 200°
2026-04-23 01:21 -28.11780 152.91369 21799 ft 379 kts 200°
2026-04-23 01:22 -28.14250 152.90292 22392 ft 382 kts 201°
2026-04-23 01:22 -28.16742 152.89205 22974 ft 385 kts 201°
2026-04-23 01:22 -28.19251 152.88110 23521 ft 388 kts 201°
2026-04-23 01:22 -28.21781 152.87005 24052 ft 391 kts 202°
2026-04-23 01:23 -28.24334 152.85890 24503 ft 394 kts 202°
2026-04-23 01:23 -28.26898 152.84769 24964 ft 397 kts 202°
2026-04-23 01:23 -28.29449 152.83654 25391 ft 399 kts 202°
2026-04-23 01:23 -28.32047 152.82517 25816 ft 402 kts 202°
2026-04-23 01:24 -28.34662 152.81373 26276 ft 404 kts 202°
2026-04-23 01:24 -28.37290 152.80222 26846 ft 402 kts 202°
2026-04-23 01:24 -28.39896 152.79081 27345 ft 403 kts 202°
2026-04-23 01:24 -28.42522 152.77929 27698 ft 408 kts 202°
2026-04-23 01:25 -28.45189 152.76758 27981 ft 413 kts 203°
2026-04-23 01:25 -28.47882 152.75576 28375 ft 416 kts 203°
2026-04-23 01:25 -28.50583 152.74390 28770 ft 418 kts 203°
2026-04-23 01:25 -28.53267 152.73211 29130 ft 420 kts 203°
2026-04-23 01:26 -28.56000 152.72010 29479 ft 423 kts 203°
2026-04-23 01:26 -28.58754 152.70798 29827 ft 426 kts 203°
2026-04-23 01:26 -28.61525 152.69579 30172 ft 428 kts 203°
2026-04-23 01:26 -28.64316 152.68350 30459 ft 431 kts 203°
2026-04-23 01:27 -28.67125 152.67112 30753 ft 433 kts 203°
2026-04-23 01:27 -28.69942 152.65871 31048 ft 435 kts 203°
2026-04-23 01:27 -28.72766 152.64626 31354 ft 436 kts 203°
2026-04-23 01:27 -28.75592 152.63379 31746 ft 435 kts 203°
2026-04-23 01:28 -28.78369 152.62153 32169 ft 433 kts 203°
2026-04-23 01:28 -28.81170 152.60917 32571 ft 431 kts 203°
2026-04-23 01:28 -28.83962 152.59683 32942 ft 431 kts 203°
2026-04-23 01:28 -28.86754 152.58448 33347 ft 429 kts 203°
2026-04-23 01:29 -28.89530 152.57219 33745 ft 428 kts 203°
2026-04-23 01:29 -28.92304 152.55991 34084 ft 427 kts 203°
2026-04-23 01:29 -28.95074 152.54763 34391 ft 427 kts 203°
2026-04-23 01:29 -28.97782 152.53562 34683 ft 426 kts 203°
2026-04-23 01:30 -29.00608 152.52308 34977 ft 426 kts 203°
2026-04-23 01:30 -29.03330 152.51100 35235 ft 426 kts 203°
2026-04-23 01:30 -29.06089 152.49874 35485 ft 426 kts 204°
2026-04-23 01:30 -29.08846 152.48648 35803 ft 425 kts 203°
2026-04-23 01:31 -29.11597 152.47426 36121 ft 423 kts 204°
2026-04-23 01:31 -29.14337 152.46207 36369 ft 423 kts 204°
2026-04-23 01:31 -29.17080 152.44985 36596 ft 424 kts 204°
2026-04-23 01:31 -29.19826 152.43762 36863 ft 423 kts 204°
2026-04-23 01:32 -29.22570 152.42540 37128 ft 422 kts 204°
2026-04-23 01:32 -29.25300 152.41322 37366 ft 422 kts 204°
2026-04-23 01:32 -29.28041 152.40099 37592 ft 422 kts 204°
2026-04-23 01:32 -29.30740 152.38894 37815 ft 422 kts 204°
2026-04-23 01:33 -29.33475 152.37672 38090 ft 421 kts 204°
2026-04-23 01:33 -29.36203 152.36453 38322 ft 421 kts 204°
2026-04-23 01:33 -29.41694 152.33996 38309 ft 424 kts 204°
2026-04-23 01:34 -29.47149 152.31554 38306 ft 419 kts 204°
2026-04-23 01:34 -29.52570 152.29124 38310 ft 417 kts 204°
2026-04-23 01:35 -29.57922 152.26722 38321 ft 415 kts 204°
2026-04-23 01:35 -29.63296 152.24306 38310 ft 414 kts 204°
2026-04-23 01:36 -29.68669 152.21888 38314 ft 414 kts 204°
2026-04-23 01:36 -29.74039 152.19468 38319 ft 415 kts 204°
2026-04-23 01:37 -29.79400 152.17050 38327 ft 417 kts 204°
2026-04-23 01:37 -29.84816 152.14605 38319 ft 419 kts 204°
2026-04-23 01:38 -29.90253 152.12147 38307 ft 421 kts 204°
2026-04-23 01:38 -29.95708 152.09679 38317 ft 422 kts 204°
2026-04-23 01:39 -30.01178 152.07200 38339 ft 423 kts 204°
2026-04-23 01:39 -30.06617 152.04734 38320 ft 423 kts 204°
2026-04-23 01:40 -30.12094 152.02246 38334 ft 423 kts 204°
2026-04-23 01:40 -30.17565 151.99759 38323 ft 422 kts 204°
2026-04-23 01:41 -30.23022 151.97275 38342 ft 421 kts 204°
2026-04-23 01:41 -30.28424 151.94813 38343 ft 420 kts 204°
2026-04-23 01:42 -30.33856 151.92334 38324 ft 419 kts 204°
2026-04-23 01:42 -30.39270 151.89860 38339 ft 418 kts 204°
2026-04-23 01:43 -30.44679 151.87386 38343 ft 418 kts 204°
2026-04-23 01:43 -30.50085 151.84910 38345 ft 418 kts 203°
2026-04-23 01:44 -30.55492 151.82431 38344 ft 417 kts 203°
2026-04-23 01:44 -30.60856 151.79968 38345 ft 417 kts 203°
2026-04-23 01:45 -30.66252 151.77488 38340 ft 417 kts 203°
2026-04-23 01:45 -30.71654 151.75002 38346 ft 418 kts 203°
2026-04-23 01:46 -30.77064 151.72509 38335 ft 418 kts 203°
2026-04-23 01:46 -30.82435 151.70032 38347 ft 418 kts 203°
2026-04-23 01:47 -30.87838 151.67537 38340 ft 418 kts 203°
2026-04-23 01:47 -30.93249 151.65035 38343 ft 418 kts 203°
2026-04-23 01:48 -30.98652 151.62533 38330 ft 418 kts 203°
2026-04-23 01:48 -31.04054 151.60029 38356 ft 418 kts 203°
2026-04-23 01:49 -31.09419 151.57539 38360 ft 418 kts 203°
2026-04-23 01:49 -31.14818 151.55030 38357 ft 418 kts 203°
2026-04-23 01:50 -31.20219 151.52518 38359 ft 418 kts 203°
2026-04-23 01:50 -31.25624 151.50000 38348 ft 418 kts 203°
2026-04-23 01:51 -31.30996 151.47494 38363 ft 418 kts 203°
2026-04-23 01:51 -31.36405 151.44968 38373 ft 419 kts 202°
2026-04-23 01:52 -31.41815 151.42439 38364 ft 419 kts 202°
2026-04-23 01:52 -31.47232 151.39903 38366 ft 419 kts 202°
2026-04-23 01:53 -31.52645 151.37367 38364 ft 419 kts 202°
2026-04-23 01:53 -31.58038 151.34835 37883 ft 424 kts 202°
2026-04-23 01:54 -31.60767 151.33553 37327 ft 421 kts 202°
2026-04-23 01:54 -31.63480 151.32278 36815 ft 419 kts 202°
2026-04-23 01:54 -31.66174 151.31011 36414 ft 414 kts 202°
2026-04-23 01:54 -31.68835 151.29759 35990 ft 410 kts 202°
2026-04-23 01:55 -31.71471 151.28518 35570 ft 407 kts 202°
2026-04-23 01:55 -31.74084 151.27287 35164 ft 403 kts 202°
2026-04-23 01:55 -31.76678 151.26064 34752 ft 400 kts 202°
2026-04-23 01:55 -31.79216 151.24866 34362 ft 397 kts 202°
2026-04-23 01:56 -31.81763 151.23664 33913 ft 393 kts 202°
2026-04-23 01:56 -31.84291 151.22469 33486 ft 390 kts 202°
2026-04-23 01:56 -31.86796 151.21285 33090 ft 386 kts 201°
2026-04-23 01:56 -31.89276 151.20112 32695 ft 382 kts 201°
2026-04-23 01:57 -31.91725 151.18953 32313 ft 378 kts 201°
2026-04-23 01:57 -31.94156 151.17802 31925 ft 375 kts 201°
2026-04-23 01:57 -31.96565 151.16661 31552 ft 372 kts 201°
2026-04-23 01:57 -31.98957 151.15527 31174 ft 369 kts 201°
2026-04-23 01:58 -32.01327 151.14402 30804 ft 366 kts 201°
2026-04-23 01:58 -32.03653 151.13299 30443 ft 363 kts 200°
2026-04-23 01:58 -32.05985 151.12191 30012 ft 360 kts 200°
2026-04-23 01:58 -32.08296 151.11093 29644 ft 356 kts 200°
2026-04-23 01:59 -32.10578 151.10009 29257 ft 352 kts 200°
2026-04-23 01:59 -32.12838 151.08934 28880 ft 348 kts 200°
2026-04-23 01:59 -32.15071 151.07871 28508 ft 344 kts 200°
2026-04-23 01:59 -32.17278 151.06821 28126 ft 341 kts 200°
2026-04-23 02:00 -32.19472 151.05776 27784 ft 338 kts 200°
2026-04-23 02:00 -32.21641 151.04742 27541 ft 336 kts 200°
2026-04-23 02:00 -32.23835 151.03698 27307 ft 355 kts 200°
2026-04-23 02:00 -32.26195 151.02574 27071 ft 376 kts 200°
2026-04-23 02:01 -32.28674 151.01393 26836 ft 389 kts 200°
2026-04-23 02:01 -32.31181 151.00194 26580 ft 388 kts 200°
2026-04-23 02:01 -32.33679 150.98998 26321 ft 387 kts 200°
2026-04-23 02:01 -32.36174 150.97803 26068 ft 386 kts 200°
2026-04-23 02:02 -32.38647 150.96619 25676 ft 382 kts 200°
2026-04-23 02:02 -32.41094 150.95447 25240 ft 378 kts 200°
2026-04-23 02:02 -32.43523 150.94283 24798 ft 374 kts 200°
2026-04-23 02:02 -32.45892 150.93148 24345 ft 371 kts 200°
2026-04-23 02:03 -32.48328 150.92192 23897 ft 367 kts 191°
2026-04-23 02:03 -32.50839 150.91783 23448 ft 362 kts 182°
2026-04-23 02:03 -32.53323 150.91808 23090 ft 354 kts 173°
2026-04-23 02:03 -32.55743 150.92207 22692 ft 350 kts 171°
2026-04-23 02:04 -32.58140 150.92651 22250 ft 347 kts 170°
2026-04-23 02:04 -32.60509 150.93094 21838 ft 343 kts 170°
2026-04-23 02:04 -32.62834 150.93523 21404 ft 342 kts 170°
2026-04-23 02:04 -32.65172 150.93947 20983 ft 339 kts 170°
2026-04-23 02:05 -32.67492 150.94363 20565 ft 336 kts 170°
2026-04-23 02:05 -32.69801 150.94775 20150 ft 334 kts 170°
2026-04-23 02:05 -32.72091 150.95182 19729 ft 332 kts 170°
2026-04-23 02:05 -32.74365 150.95586 19343 ft 328 kts 170°
2026-04-23 02:06 -32.76615 150.95985 18947 ft 326 kts 170°
2026-04-23 02:06 -32.78855 150.96383 18533 ft 324 kts 169°
2026-04-23 02:06 -32.81072 150.96777 18186 ft 319 kts 169°
2026-04-23 02:06 -32.83234 150.97161 17798 ft 317 kts 169°
2026-04-23 02:07 -32.85402 150.97547 17398 ft 315 kts 169°
2026-04-23 02:07 -32.87573 150.97934 16986 ft 316 kts 170°
2026-04-23 02:07 -32.89755 150.98322 16563 ft 318 kts 170°
2026-04-23 02:07 -32.91969 150.98718 16172 ft 325 kts 170°
2026-04-23 02:08 -32.94227 150.99121 15751 ft 329 kts 170°
2026-04-23 02:08 -32.96491 150.99525 15337 ft 328 kts 170°
2026-04-23 02:08 -32.98740 150.99926 14918 ft 326 kts 170°
2026-04-23 02:08 -33.00944 151.00319 14508 ft 324 kts 170°
2026-04-23 02:09 -33.03165 151.00716 14091 ft 322 kts 170°
2026-04-23 02:09 -33.05377 151.01111 13627 ft 321 kts 170°
2026-04-23 02:09 -33.07581 151.01505 13197 ft 319 kts 170°
2026-04-23 02:09 -33.09765 151.01896 12782 ft 316 kts 170°
2026-04-23 02:10 -33.11935 151.02284 12368 ft 314 kts 169°
2026-04-23 02:10 -33.14089 151.02670 11954 ft 312 kts 169°
2026-04-23 02:10 -33.16230 151.03054 11559 ft 311 kts 169°
2026-04-23 02:10 -33.18368 151.03437 11158 ft 309 kts 170°
2026-04-23 02:11 -33.20440 151.03809 10966 ft 301 kts 169°
2026-04-23 02:11 -33.22517 151.04181 10529 ft 302 kts 169°
2026-04-23 02:11 -33.24577 151.04555 10274 ft 297 kts 169°
2026-04-23 02:11 -33.26594 151.04940 10074 ft 290 kts 169°
2026-04-23 02:12 -33.28559 151.05319 9901 ft 282 kts 169°
2026-04-23 02:12 -33.30452 151.05683 9900 ft 269 kts 169°
2026-04-23 02:12 -33.32326 151.06044 9345 ft 274 kts 169°
2026-04-23 02:12 -33.34191 151.06402 8964 ft 268 kts 168°
2026-04-23 02:13 -33.35983 151.06746 8692 ft 264 kts 169°
2026-04-23 02:13 -33.37793 151.07094 8397 ft 263 kts 169°
2026-04-23 02:13 -33.39603 151.07441 8088 ft 263 kts 168°
2026-04-23 02:13 -33.41406 151.07788 7804 ft 262 kts 169°
2026-04-23 02:14 -33.43204 151.08133 7510 ft 261 kts 169°
2026-04-23 02:14 -33.44988 151.08476 7238 ft 259 kts 169°
2026-04-23 02:14 -33.46747 151.08813 6961 ft 252 kts 168°
2026-04-23 02:14 -33.48448 151.09140 6686 ft 246 kts 169°
2026-04-23 02:15 -33.51804 151.09786 6147 ft 245 kts 169°
2026-04-23 02:15 -33.53485 151.10110 5884 ft 244 kts 169°
2026-04-23 02:15 -33.55156 151.10432 5624 ft 243 kts 169°
2026-04-23 02:16 -33.56819 151.10752 5381 ft 242 kts 169°
2026-04-23 02:16 -33.58475 151.11071 5096 ft 241 kts 169°
2026-04-23 02:16 -33.60128 151.11390 4833 ft 238 kts 169°
2026-04-23 02:16 -33.61735 151.11701 4589 ft 229 kts 169°
2026-04-23 02:17 -33.63261 151.12001 4539 ft 216 kts 169°
2026-04-23 02:17 -33.64733 151.12292 4449 ft 213 kts 169°
2026-04-23 02:17 -33.66163 151.12575 4379 ft 210 kts 169°
2026-04-23 02:17 -33.67599 151.12858 4274 ft 209 kts 169°
2026-04-23 02:18 -33.69023 151.13140 4177 ft 206 kts 169°
2026-04-23 02:18 -33.70422 151.13404 4071 ft 208 kts 173°
2026-04-23 02:18 -33.71840 151.13033 3843 ft 218 kts 211°
2026-04-23 02:18 -33.73087 151.11979 3625 ft 219 kts 202°
2026-04-23 02:19 -33.74534 151.11847 3416 ft 210 kts 161°
2026-04-23 02:19 -33.75871 151.12492 3210 ft 205 kts 159°
2026-04-23 02:19 -33.77201 151.13001 3051 ft 195 kts 163°
2026-04-23 02:19 -33.78451 151.13369 2947 ft 175 kts 165°
2026-04-23 02:20 -33.79574 151.13669 2761 ft 159 kts 166°
2026-04-23 02:20 -33.80282 151.13854 2611 ft 149 kts 166°
2026-04-23 02:20 -33.81522 151.14246 2372 ft 134 kts 155°
2026-04-23 02:20 -33.82310 151.14828 2182 ft 132 kts 148°
2026-04-23 02:21 -33.83107 151.15330 2117 ft 127 kts 152°
2026-04-23 02:21 -33.83888 151.15842 2294 ft 130 kts 149°
2026-04-23 02:21 -33.84730 151.16367 2081 ft 136 kts 157°
2026-04-23 02:21 -33.85652 151.16595 1773 ft 133 kts 171°
2026-04-23 02:22 -33.86555 151.16653 1594 ft 127 kts 175°
2026-04-23 02:22 -33.87461 151.16804 1644 ft 139 kts 166°
2026-04-23 02:22 -33.88382 151.17050 1662 ft 140 kts 164°
2026-04-23 02:22 -33.89328 151.17345 1482 ft 140 kts 161°
2026-04-23 02:23 -33.90270 151.17661 1181 ft 138 kts 165°
2026-04-23 02:23 -33.91210 151.17891 902 ft 138 kts 167°
2026-04-23 02:23 -33.92138 151.18085 827 ft 135 kts 166°
2026-04-23 02:23 -33.93095 151.18338 564 ft 137 kts 164°
2026-04-23 02:24 -33.94026 151.18596 319 ft 137 kts 165°
2026-04-23 02:24 -33.94929 151.18822 110 ft 128 kts 164°
2026-04-23 02:24 -33.95766 151.19041 26 ft 113 kts 168°
2026-04-23 02:24 -33.96382 151.19197 26 ft 55 kts 168°
2026-04-23 02:25 -33.96580 151.19215 26 ft 21 kts 195°
2026-04-23 02:25 -33.96649 151.19190 26 ft 6 kts 196°
2026-04-23 02:25 -33.96655 151.19188 27 ft 0 kts 196°
2026-04-23 02:26 -33.96662 151.19185 26 ft 4 kts 197°
2026-04-23 02:26 -33.96691 151.19171 30 ft 4 kts 210°
2026-04-23 02:27 -33.96711 151.19144 27 ft 4 kts 244°
2026-04-23 02:27 -33.96709 151.19103 28 ft 10 kts 294°
2026-04-23 02:27 -33.96640 151.19062 29 ft 12 kts 346°
2026-04-23 02:27 -33.96560 151.19039 29 ft 12 kts 347°
2026-04-23 02:28 -33.96482 151.19020 29 ft 11 kts 349°
2026-04-23 02:28 -33.96407 151.19001 29 ft 11 kts 347°
2026-04-23 02:28 -33.96333 151.18981 29 ft 11 kts 347°
2026-04-23 02:28 -33.96251 151.18961 29 ft 17 kts 348°
2026-04-23 02:29 -33.96111 151.18919 29 ft 22 kts 343°
2026-04-23 02:29 -33.95962 151.18886 29 ft 21 kts 352°
2026-04-23 02:29 -33.95822 151.18850 29 ft 20 kts 346°
2026-04-23 02:29 -33.95686 151.18813 29 ft 20 kts 348°
2026-04-23 02:30 -33.95555 151.18778 29 ft 19 kts 347°
2026-04-23 02:30 -33.95429 151.18744 29 ft 18 kts 349°
2026-04-23 02:30 -33.95307 151.18715 29 ft 17 kts 341°
2026-04-23 02:30 -33.95197 151.18633 29 ft 19 kts 316°
2026-04-23 02:31 -33.95126 151.18538 29 ft 13 kts 299°
2026-04-23 02:31 -33.95121 151.18399 29 ft 22 kts 260°
2026-04-23 02:31 -33.95157 151.18218 29 ft 22 kts 259°
2026-04-23 02:31 -33.95184 151.18042 29 ft 17 kts 257°
2026-04-23 02:32 -33.95140 151.17952 29 ft 18 kts 341°
2026-04-23 02:32 -33.94946 151.17902 29 ft 32 kts 347°
2026-04-23 02:32 -33.94727 151.17842 29 ft 32 kts 349°
2026-04-23 02:32 -33.94516 151.17790 29 ft 30 kts 348°
2026-04-23 02:33 -33.94320 151.17730 29 ft 28 kts 345°
2026-04-23 02:33 -33.94136 151.17674 28 ft 26 kts 346°
2026-04-23 02:33 -33.93963 151.17626 28 ft 25 kts 347°
2026-04-23 02:33 -33.93801 151.17584 28 ft 23 kts 348°
2026-04-23 02:34 -33.93665 151.17574 28 ft 17 kts 29°
2026-04-23 02:34 -33.93584 151.17617 29 ft 7 kts 356°
2026-04-23 02:34 -33.93557 151.17650 29 ft 3 kts 92°
2026-04-23 02:34 -33.93558 151.17674 29 ft 3 kts 96°
2026-04-23 02:35 -33.93559 151.17683 29 ft 0 kts 99°